User: anonymous   Login
Location: Trois-Rivi�res
(46.3500°N, 72.5500°W)
Time: 22:30:49
(UTC-05:00)
Language:

UWE-3 - Orbit

View from above orbital plane
View from above orbital plane
View from above satellite
View from above satellite

Ground track
Ground track

The orbit data is extracted from the following two-line orbital elements,

1 39446U 13066AG  18048.28034106 +.00000204 +00000-0 +33911-4 0  9994
2 39446 097.6039 076.5574 0069723 205.6944 154.0798 14.78145394226812
Epoch (UTC): 17 February 2018 06:43:41
Eccentricity: 0.0069723
inclination: 97.6039°
perigee height: 586 km
apogee height: 684 km
right ascension of ascending node: 76.5574°
argument of perigee: 205.6944°
revolutions per day: 14.78145394
mean anomaly at epoch: 154.0798°
orbit number at epoch: 22681

The dashed part of the orbit path shows where the satellite is in the earth's shadow,  

DLR